Tracking 18852 objects as of 23-Nov-2017
HD Live streaming from Space Station
objects crossing your sky now

FENGYUN 1C DEB

Track FENGYUN 1C DEB now!
10-day predictions


NORAD ID: 30539
Int'l Code: 1999-025AKD
Perigee: 656.0 km
Apogee: 857.3 km
Inclination: 98.9 °
Period: 99.8 minutes
Semi major axis: 7127 km
RCS: 0.025 m2 (small)
Launch date: May 10, 1999
Source: People's Republic of China (PRC)
Launch site: Taiyaun Space Center, China (TSC)

Note: This is SATELLITE DEBRIS
aabbcc
Your satellite tracking list
Your tracking list is empty




NASA's NSSDC Master Catalog

Two Line Element Set (TLE):
1 30539U 99025AKD 17326.44027949 +.00000421 +00000-0 +12631-3 0  9996
2 30539 098.9247 136.8989 0141198 081.8067 279.9108 14.42722531568511
Source of the keplerian elements: AFSPC